TimeEST,TemperatureF,Dew PointF,Humidity,Sea Level PressureIn,VisibilityMPH,Wind Direction,Wind SpeedMPH,Gust SpeedMPH,PrecipitationIn,Events,Conditions,WindDirDegrees,DateUTC
12:52 AM,28.0,21.9,78,30.14,10.0,East,5.8,-,N/A,,Clear,90,2013-02-25 05:52:00
1:52 AM,28.9,21.9,75,30.14,10.0,East,4.6,-,N/A,,Clear,90,2013-02-25 06:52:00
2:52 AM,28.9,21.0,72,30.13,10.0,East,5.8,-,N/A,,Clear,90,2013-02-25 07:52:00
3:52 AM,28.0,21.0,75,30.13,10.0,ESE,3.5,-,N/A,,Clear,110,2013-02-25 08:52:00
4:52 AM,27.0,19.9,75,30.15,10.0,ESE,3.5,-,N/A,,Clear,110,2013-02-25 09:52:00
5:52 AM,26.1,19.9,78,30.16,10.0,East,4.6,-,N/A,,Clear,90,2013-02-25 10:52:00
6:52 AM,26.1,19.9,78,30.18,10.0,East,4.6,-,N/A,,Clear,90,2013-02-25 11:52:00
7:52 AM,28.0,21.0,75,30.16,9.0,ENE,6.9,-,N/A,,Clear,70,2013-02-25 12:52:00
8:52 AM,30.0,21.0,69,30.16,10.0,East,8.1,-,N/A,,Clear,100,2013-02-25 13:52:00
9:52 AM,34.0,21.9,61,30.17,10.0,East,10.4,-,N/A,,Mostly Cloudy,100,2013-02-25 14:52:00
10:52 AM,37.0,23.0,57,30.17,10.0,East,11.5,-,N/A,,Mostly Cloudy,100,2013-02-25 15:52:00
11:52 AM,39.9,23.0,51,30.13,10.0,ENE,11.5,-,N/A,,Mostly Cloudy,70,2013-02-25 16:52:00
12:52 PM,41.0,23.0,49,30.10,10.0,East,10.4,-,N/A,,Mostly Cloudy,90,2013-02-25 17:52:00
1:52 PM,43.0,23.0,45,30.06,10.0,ENE,9.2,17.3,N/A,,Scattered Clouds,70,2013-02-25 18:52:00
2:52 PM,44.1,24.1,45,30.04,10.0,NE,13.8,-,N/A,,Partly Cloudy,50,2013-02-25 19:52:00
3:52 PM,45.0,24.1,44,30.01,10.0,NE,15.0,-,N/A,,Partly Cloudy,50,2013-02-25 20:52:00
4:52 PM,45.0,23.0,42,30.01,10.0,ENE,16.1,-,N/A,,Scattered Clouds,60,2013-02-25 21:52:00
5:52 PM,42.1,25.0,51,30.01,10.0,East,12.7,-,N/A,,Scattered Clouds,80,2013-02-25 22:52:00
6:52 PM,42.1,24.1,49,29.99,10.0,ENE,13.8,-,N/A,,Scattered Clouds,60,2013-02-25 23:52:00
7:52 PM,41.0,25.0,53,29.93,10.0,ENE,16.1,-,N/A,,Partly Cloudy,60,2013-02-26 00:52:00
8:52 PM,39.0,24.1,55,29.98,10.0,East,10.4,-,N/A,,Scattered Clouds,100,2013-02-26 01:52:00
9:52 PM,39.0,21.9,50,29.96,10.0,ENE,11.5,-,N/A,,Overcast,70,2013-02-26 02:52:00
10:52 PM,37.9,21.9,53,29.93,10.0,East,12.7,-,N/A,,Overcast,80,2013-02-26 03:52:00
11:52 PM,37.0,21.9,54,29.89,10.0,East,12.7,-,N/A,,Overcast,80,2013-02-26 04:52:00